K2ZVL Weather Reports


time (UTC)temp
C
wind
direction
speed
KPH
gust
KPH
rain 1hr
cm
rain 24hr
cm
rain mn
cm
humidity
%
barometer
mb
20260506050842 10 250 0.0 0.0 0.03 0.41 0.05 64 1007.3
20260506044842 10 250 0.0 0.0 0.08 0.41 0.05 64 1007.5
20260506043842 10 250 0.0 0.0 0.08 0.41 0.05 65 1007.6
20260506042842 10 250 0.0 1.6 0.08 0.41 0.05 65 1007.4
20260506041842 10 250 0.0 1.6 0.08 0.41 0.05 66 1007.6
20260506040842 10 250 0.0 0.0 0.05 0.38 0.03 66 1008.0
20260506035912 10 250 0.0 3.2 0.03 0.36 0.00 66 1007.7
20260506034842 10 250 3.2 3.2 0.03 0.33 0.33 67 1007.6
20260506033912 10 107 0.0 0.0 0.03 0.33 0.33 69 1007.2
20260506032842 10 107 0.0 1.6 0.03 0.33 0.33 69 1007.1
20260506031842 10 107 0.0 3.2 0.03 0.33 0.33 70 1007.2
20260506030843 10 317 0.0 1.6 0.03 0.33 0.33 71 1007.1
20260506025843 10 317 0.0 1.6 0.03 0.33 0.33 72 1007.0
20260506024842 11 317 0.0 1.6 0.00 0.30 0.30 73 1007.5
20260506023842 11 317 0.0 3.2 0.03 0.30 0.30 75 1007.1
20260506022842 11 317 1.6 8.0 0.05 0.30 0.30 76 1007.5
20260506021842 11 325 3.2 16.1 0.05 0.30 0.30 77 1007.2
20260506020842 11 302 6.4 16.1 0.05 0.30 0.30 77 1007.3
20260506014842 12 309 4.8 14.5 0.08 0.30 0.30 76 1006.6
20260506013842 12 13 3.2 12.9 0.05 0.28 0.28 77 1006.4
20260506012843 13 342 1.6 8.0 0.03 0.25 0.25 77 1006.4
20260506011842 13 309 3.2 6.4 0.03 0.25 0.25 75 1006.1
20260506005842 13 282 0.0 8.0 0.00 0.23 0.23 70 1005.8
20260506004842 13 243 0.0 1.6 0.00 0.23 0.23 69 1005.6
20260506002842 13 167 0.0 1.6 0.00 0.23 0.23 70 1005.2
20260506001841 13 145 0.0 0.0 0.00 0.23 0.23 70 1004.8
20260506000841 13 145 0.0 1.6 0.03 0.23 0.23 71 1004.6
20260505235912 14 125 0.0 4.8 0.03 0.23 0.23 74 1003.9
20260505234841 14 265 0.0 4.8 0.03 0.23 0.23 76 1004.6
20260505233842 15 265 0.0 3.2 0.03 0.23 0.23 76 1004.3
20260505232842 15 265 0.0 3.2 0.03 0.23 0.23 76 1004.3
20260505231841 15 212 0.0 9.7 0.03 0.23 0.23 76 1004.1
20260505230842 16 240 0.0 8.0 0.00 0.20 0.20 74 1003.8
20260505222841 16 142 0.0 6.4 0.00 0.20 0.20 71 1003.7
20260505221842 17 127 3.2 9.7 0.00 0.20 0.20 68 1003.6
20260505214841 17 59 3.2 11.3 0.00 0.20 0.20 64 1003.3
20260505213841 17 275 3.2 12.9 0.00 0.20 0.20 63 1003.3
20260505212841 18 123 8.0 9.7 0.00 0.20 0.20 63 1003.7
20260505210911 18 267 3.2 19.3 0.00 0.20 0.20 63 1004.0
20260505205941 17 215 1.6 17.7 0.00 0.20 0.20 65 1003.6
20260505203841 16 309 3.2 27.4 0.00 0.20 0.20 66 1003.5
20260505202841 17 240 12.9 33.8 0.00 0.20 0.20 61 1003.4
20260505201841 17 248 33.8 33.8 0.00 0.20 0.20 60 1003.5
20260505200841 17 272 11.3 29.0 0.00 0.20 0.20 60 1003.0
20260505195911 17 321 4.8 14.5 0.00 0.20 0.20 65 1002.8
20260505193844 20 320 8.0 25.7 0.00 0.20 0.20 52 1002.5
20260505192843 21 222 8.0 24.1 0.00 0.20 0.20 48 1002.4
20260505191843 21 214 4.8 24.1 0.08 0.20 0.20 47 1002.3
20260505190912 21 242 8.0 35.4 0.08 0.20 0.20 49 1002.2
20260505185842 20 231 4.8 16.1 0.13 0.20 0.20 56 1002.4
20260505184912 20 247 6.4 11.3 0.13 0.20 0.20 61 1002.3
20260505183842 18 291 3.2 20.9 0.13 0.20 0.20 68 1002.2
20260505182842 17 42 4.8 33.8 0.13 0.20 0.20 70 1002.1
20260505181842 18 288 1.6 16.1 0.05 0.13 0.13 67 1002.1
20260505175912 21 247 6.4 24.1 0.00 0.08 0.08 46 1002.2
20260505174842 22 174 0.0 24.1 0.00 0.08 0.08 43 1002.0
20260505173842 22 223 6.4 20.9 0.00 0.08 0.08 43 1002.0
20260505172842 22 196 8.0 24.1 0.00 0.08 0.08 43 1001.9
20260505171841 22 341 6.4 20.9 0.00 0.08 0.08 42 1001.8
20260505165841 22 16 4.8 27.4 0.00 0.08 0.08 43 1001.9
20260505164842 22 102 11.3 22.5 0.00 0.08 0.08 42 1001.8
20260505163842 22 82 20.9 29.0 0.00 0.08 0.08 43 1001.9
20260505162841 22 338 0.0 25.7 0.00 0.08 0.08 44 1002.1
20260505161842 22 219 11.3 22.5 0.00 0.08 0.08 45 1002.2
20260505160841 21 302 4.8 20.9 0.00 0.08 0.08 47 1002.4
20260505152842 21 319 1.6 20.9 0.00 0.08 0.08 48 1002.3
20260505151841 21 165 17.7 17.7 0.00 0.08 0.08 48 1002.2
20260505122840 13 241 0.0 12.9 0.00 0.03 0.03 74 1003.8
20260505120841 13 159 1.6 8.0 0.00 0.03 0.03 74 1003.9
20260505115911 12 279 1.6 4.8 0.00 0.03 0.03 76 1003.9
20260505114841 12 165 1.6 4.8 0.00 0.03 0.03 77 1004.1
20260505113841 11 265 1.6 6.4 0.00 0.03 0.03 76 1003.9
20260505112841 11 194 0.0 1.6 0.00 0.03 0.03 75 1003.7
20260505111841 10 194 0.0 3.2 0.03 0.03 0.03 74 1003.7
20260505110841 10 213 0.0 1.6 0.03 0.03 0.03 75 1003.7
20260505101841 11 213 0.0 6.4 0.00 0.00 0.00 72 1004.0
20260505100840 11 224 4.8 8.0 0.00 0.00 0.00 72 1004.2
20260505095841 11 214 0.0 4.8 0.00 0.00 0.00 69 1004.1
20260505094841 12 279 0.0 3.2 0.00 0.00 0.00 69 1004.1
20260505093841 12 279 0.0 4.8 0.00 0.00 0.00 67 1004.0
20260505091841 12 101 0.0 6.4 0.00 0.00 0.00 68 1003.6
20260505090841 12 138 3.2 8.0 0.00 0.00 0.00 69 1003.8
20260505084841 12 306 0.0 3.2 0.00 0.00 0.00 65 1004.2
20260505082841 12 306 0.0 6.4 0.00 0.00 0.00 61 1004.6
20260505081841 12 103 0.0 11.3 0.00 0.00 0.00 59 1004.5
20260505080840 13 290 0.0 8.0 0.00 0.00 0.00 59 1004.4
20260505075911 13 179 4.8 11.3 0.00 0.00 0.00 59 1004.2
20260505074841 13 215 0.0 8.0 0.00 0.00 0.00 59 1004.1
20260505073841 13 142 0.0 6.4 0.00 0.00 0.00 59 1004.2
20260505072841 13 128 0.0 11.3 0.00 0.00 0.00 59 1004.2
20260505071841 12 317 0.0 8.0 0.00 0.00 0.00 59 1004.0
20260505070840 12 213 0.0 12.9 0.00 0.00 0.00 59 1003.9
20260505065841 12 202 0.0 9.7 0.00 0.00 0.00 59 1004.0
20260505063841 12 265 0.0 11.3 0.00 0.00 0.00 59 1004.1
20260505062841 12 292 0.0 9.7 0.00 0.00 0.00 59 1004.2
20260505061841 12 207 0.0 8.0 0.00 0.00 0.00 58 1004.3
20260505060841 12 316 0.0 14.5 0.00 0.00 0.00 57 1004.3